Weather History for Morristown, NJ

Change the Weather History Date:

Thursday, September 26, 2013

  Actual Average Record
Temperature  
Mean Temperature 56 °F -  
Max Temperature 68 °F 71 °F 91 °F (1970)
Min Temperature 44 °F 47 °F 28 °F (1932)
Degree Days  
Heating Degree Days 9    
Growing Degree Days 6 (Base 50)    
Moisture  
Dew Point 49 °F    
Average Humidity 86    
Maximum Humidity 94    
Minimum Humidity 64    
Precipitation  
Precipitation 0.00 in - - ()
Sea Level Pressure  
Sea Level Pressure 30.01 in    
Wind  
Wind Speed 1 mph (East)    
Max Wind Speed 7 mph    
Max Gust Speed -    
Visibility 9 miles    
Events      
Averages and records for this station are not official NWS values.
T = Trace of Precipitation, MM = Missing Value Source: NWS Daily Summary

Daily Weather History Graph

Daily Weather History Graph

Search for Another Location

Airport:

Trip Planner

Search our weather history database for the weather conditions in past years. The results will help you decide how hot, cold, wet, or windy it might be!

Date:

Astronomy

Sep. 26, 2013 Rise Set
Actual Time 6:49 AM EDT 6:47 PM EDT
Civil Twilight 6:22 AM EDT 7:14 PM EDT
Nautical Twilight 5:50 AM EDT 7:46 PM EDT
Astronomical Twilight 5:17 AM EDT 8:19 PM EDT
Moon 11:41 PM EDT (9/26) 1:41 PM EDT (9/26)
Length of Visible Light 12h 52m
Length of Day
11h 58m
Waning Gibbous, 55% of the Moon is Illuminated
Sep 26
Waning Gibbous
Sep 26
Last Quarter
Oct 4
New
Oct 11
First Quarter
Oct 18
Full

Hourly Weather History & Observations

Time (EDT) Temp. Dew Point Humidity Pressure Visibility Wind Dir Wind Speed Gust Speed Precip Events Conditions
12:15 AM 48.2 °F 46.4 °F 93% 29.96 in 2.0 mi Calm Calm - N/A   Clear
12:35 AM 48.2 °F 44.6 °F 87% 29.96 in 10.0 mi Calm Calm - N/A   Clear
12:55 AM 48.2 °F 46.4 °F 93% 29.96 in 10.0 mi Calm Calm - N/A   Clear
1:15 AM 48.2 °F 44.6 °F 87% 29.96 in 10.0 mi Calm Calm - N/A   Clear
1:35 AM 48.2 °F 44.6 °F 87% 29.96 in 10.0 mi Calm Calm - N/A   Clear
1:55 AM 46.4 °F 44.6 °F 93% 29.96 in 10.0 mi Calm Calm - N/A   Clear
2:15 AM 46.4 °F 44.6 °F 93% 29.96 in 10.0 mi Calm Calm - N/A   Clear
2:35 AM 46.4 °F 44.6 °F 93% 29.96 in 10.0 mi Calm Calm - N/A   Clear
2:55 AM 46.4 °F 44.6 °F 93% 29.96 in 1.2 mi Calm Calm - N/A   Mist
3:15 AM 46.4 °F 42.8 °F 87% 29.96 in 2.5 mi Calm Calm - N/A   Clear
3:35 AM 46.4 °F 42.8 °F 87% 29.96 in 10.0 mi Calm Calm - N/A   Clear
3:55 AM 46.4 °F 44.6 °F 93% 29.96 in 1.2 mi Calm Calm - N/A   Mist
4:15 AM 46.4 °F 42.8 °F 87% 29.97 in 10.0 mi Calm Calm - N/A   Clear
4:35 AM 44.6 °F 42.8 °F 93% 29.97 in 10.0 mi Calm Calm - N/A   Clear
4:55 AM 44.6 °F 42.8 °F 93% 29.97 in 10.0 mi Calm Calm - N/A   Clear
5:15 AM 44.6 °F 42.8 °F 93% 29.98 in 4.0 mi Calm Calm - N/A   Clear
5:35 AM 44.6 °F 42.8 °F 93% 29.98 in 10.0 mi Calm Calm - N/A   Clear
5:55 AM 44.6 °F 42.8 °F 93% 29.99 in 10.0 mi Calm Calm - N/A   Scattered Clouds
6:15 AM 44.6 °F 42.8 °F 93% 29.99 in 10.0 mi Calm Calm - N/A   Mostly Cloudy
6:35 AM 46.4 °F 44.6 °F 93% 30.00 in 10.0 mi Calm Calm - N/A   Overcast
6:45 AM 44.6 °F 42.8 °F 93% 30.00 in 10.0 mi Calm Calm - N/A   Mostly Cloudy
7:45 AM 50.0 °F 46.4 °F 87% 30.02 in 10.0 mi Calm Calm - N/A   Overcast
8:45 AM 55.4 °F 53.6 °F 94% 30.02 in 10.0 mi Calm Calm - N/A   Overcast
9:45 AM 60.8 °F 55.4 °F 82% 30.04 in 10.0 mi Calm Calm - N/A   Mostly Cloudy
10:45 AM 62.6 °F 57.2 °F 82% 30.05 in 10.0 mi NNE 5.8 mph - N/A   Mostly Cloudy
11:45 AM 64.4 °F 57.2 °F 77% 30.05 in 10.0 mi ENE 4.6 mph - N/A   Mostly Cloudy
12:45 PM 68.0 °F 55.4 °F 64% 30.04 in 10.0 mi ENE 4.6 mph - N/A   Mostly Cloudy
1:45 PM 68.0 °F 55.4 °F 64% 30.03 in 10.0 mi SE 4.6 mph - N/A   Mostly Cloudy
2:45 PM 68.0 °F 55.4 °F 64% 30.02 in 10.0 mi NE 6.9 mph - N/A   Mostly Cloudy
3:45 PM 68.0 °F 55.4 °F 64% 30.02 in 10.0 mi NE 6.9 mph - N/A   Overcast
4:45 PM 68.0 °F 55.4 °F 64% 30.03 in 10.0 mi SE 3.5 mph - N/A   Mostly Cloudy
5:45 PM 66.2 °F 57.2 °F 73% 30.04 in 10.0 mi SSE 5.8 mph - N/A   Scattered Clouds
6:45 PM 60.8 °F 55.4 °F 82% 30.05 in 10.0 mi Calm Calm - N/A   Partly Cloudy
7:45 PM 57.2 °F 53.6 °F 88% 30.06 in 10.0 mi Calm Calm - N/A   Scattered Clouds
8:45 PM 55.4 °F 53.6 °F 94% 30.09 in 10.0 mi Calm Calm - N/A   Overcast
9:45 PM 55.4 °F 53.6 °F 94% 30.11 in 10.0 mi Calm Calm - N/A   Scattered Clouds
10:55 PM 57.2 °F 55.4 °F 94% 30.11 in 10.0 mi Calm Calm - N/A   Overcast
11:15 PM 57.2 °F 53.6 °F 88% 30.11 in 10.0 mi Calm Calm - N/A   Overcast
11:35 PM 57.2 °F 53.6 °F 88% 30.11 in 10.0 mi Calm Calm - N/A   Overcast
11:55 PM 59.0 °F 53.6 °F 82% 30.11 in 10.0 mi Calm Calm - N/A   Overcast